sat.trackr.live / text

‹ back to catalog

STARLINK-2503

NORAD 48151 · 2021-027BM

PAYLOAD ACTIVE UNKNOWN

§ Identity

Operator
Country
US
Launch date
2021-04-07
Launch site
AFETR
Launch vehicle
Mass (kg)
RCS (m²)

Purposes: comms

External: N2YO · Heavens-Above · Gunter

§ Orbital elements

Epoch: 2026-09-20T03:35:17.461824Z

Period
94.01 min
Inclination
53.1589°
Eccentricity
0.0001332
Mean motion
15.31705379 rev/d
Perigee alt
469.8 km
Apogee alt
471.6 km
Semi-major
6,848.9 km
B*
-2.4969e-5
RAAN
327.6859°
Arg perigee
89.6483°
Mean anomaly
270.4671°
Rev number
30,248

§ Raw data

STARLINK-25031 48151U 21027BM  26263.14950766 -.00001140  00000+0 -24969-4 0  99992 48151  53.1589 327.6859 0001332  89.6483 270.4671 15.31705379302484

JSON: /api/v1/satellites/48151 · /tle

For live sub-satellite position, see the globe view (requires WebGL).

§ Visibility from observer

Set your observer location to see the next 7 days of passes ≥ 10°. The values pass through the URL so the page stays shareable.

No JS? Fill the form by hand. The geolocation button needs JavaScript.